| time (UTC) | temp F | wind direction | speed knots | gust knots | rain 1hr in | rain 24hr in | rain mn in | humidity % | barometer mb |
| 20260507093345 | 51 | 300 | 0.0 | 4.3 | 0.00 | 0.00 | 0.00 | 78 | 1013.7 |
| 20260507092345 | 51 | 302 | 0.0 | 4.3 | 0.00 | 0.00 | 0.00 | 79 | 1013.7 |
| 20260507091825 | 50 | 302 | 0.0 | 3.5 | 0.00 | 0.00 | 0.00 | 79 | 1013.6 |
| 20260507090345 | 50 | 302 | 0.0 | 3.5 | 0.00 | 0.00 | 0.00 | 79 | 1013.5 |
| 20260507085825 | 50 | 302 | 0.9 | 4.3 | 0.00 | 0.00 | 0.00 | 78 | 1013.4 |
| 20260507084830 | 50 | 300 | 0.0 | 5.2 | 0.00 | 0.00 | 0.00 | 80 | 1013.4 |
| 20260507083344 | 50 | 302 | 0.0 | 4.3 | 0.00 | 0.00 | 0.00 | 80 | 1013.2 |
| 20260507082344 | 50 | 302 | 1.7 | 3.5 | 0.00 | 0.00 | 0.00 | 80 | 1013.2 |
| 20260507081344 | 50 | 302 | 0.0 | 4.3 | 0.00 | 0.00 | 0.00 | 80 | 1013.0 |
| 20260507080343 | 50 | 302 | 0.0 | 3.5 | 0.00 | 0.00 | 0.00 | 80 | 1013.0 |
| 20260507075343 | 49 | 302 | 2.6 | 4.3 | 0.00 | 0.00 | 0.00 | 80 | 1013.0 |
| 20260507074343 | 49 | 302 | 0.0 | 2.6 | 0.00 | 0.00 | 0.00 | 81 | 1012.8 |
| 20260507073343 | 49 | 302 | 0.0 | 3.5 | 0.00 | 0.00 | 0.00 | 81 | 1012.6 |
| 20260507072338 | 49 | 302 | 0.0 | 4.3 | 0.00 | 0.00 | 0.00 | 81 | 1012.6 |
| 20260507072254 | 49 | 302 | 3.5 | 6.1 | 0.00 | 0.00 | 0.00 | 82 | 1012.4 |
| 20260507070338 | 49 | 302 | 0.0 | 4.3 | 0.00 | 0.00 | 0.00 | 83 | 1012.3 |
| 20260507065333 | 49 | 302 | 0.9 | 3.5 | 0.00 | 0.00 | 0.00 | 83 | 1012.3 |
| 20260507064332 | 49 | 302 | 2.6 | 6.1 | 0.00 | 0.00 | 0.00 | 83 | 1012.2 |
| 20260507063332 | 49 | 303 | 0.0 | 3.5 | 0.00 | 0.00 | 0.00 | 84 | 1012.2 |
| 20260507062332 | 49 | 303 | 0.0 | 3.5 | 0.00 | 0.00 | 0.00 | 85 | 1012.0 |
| 20260507062258 | 48 | 302 | 0.9 | 3.5 | 0.00 | 0.00 | 0.00 | 85 | 1011.9 |
| 20260507060817 | 48 | 302 | 0.0 | 0.0 | 0.00 | 0.00 | 0.00 | 87 | 1011.8 |
| 20260507055330 | 48 | 302 | 0.0 | 0.0 | 0.00 | 0.00 | 0.00 | 88 | 1011.7 |
| 20260507054806 | 48 | 302 | 0.0 | 0.0 | 0.00 | 0.00 | 0.00 | 88 | 1011.6 |
| 20260507053335 | 47 | 302 | 0.0 | 0.0 | 0.00 | 0.00 | 0.00 | 88 | 1011.5 |
| 20260507052334 | 47 | 302 | 0.0 | 0.0 | 0.00 | 0.00 | 0.00 | 88 | 1011.3 |
| 20260507051817 | 47 | 302 | 0.0 | 0.0 | 0.00 | 0.00 | 0.00 | 87 | 1011.3 |
| 20260507050812 | 48 | 302 | 0.0 | 0.0 | 0.00 | 0.00 | 0.00 | 89 | 1011.2 |
| 20260507045331 | 48 | 303 | 0.0 | 0.0 | 0.00 | 0.00 | 0.00 | 85 | 1011.0 |
| 20260507044331 | 49 | 302 | 0.0 | 0.0 | 0.00 | 0.00 | 0.00 | 84 | 1011.0 |
| 20260507043331 | 49 | 303 | 0.0 | 0.0 | 0.00 | 0.00 | 0.00 | 83 | 1010.9 |
| 20260507042331 | 49 | 303 | 0.0 | 0.0 | 0.00 | 0.00 | 0.00 | 83 | 1010.7 |
| 20260507041331 | 49 | 303 | 0.0 | 0.0 | 0.00 | 0.00 | 0.00 | 83 | 1010.7 |
| 20260507040332 | 49 | 303 | 0.0 | 0.0 | 0.00 | 0.00 | 0.00 | 83 | 1010.5 |
| 20260507035331 | 49 | 302 | 0.0 | 0.0 | 0.00 | 0.00 | 0.00 | 83 | 1010.4 |
| 20260507034332 | 49 | 302 | 0.0 | 0.0 | 0.00 | 0.00 | 0.00 | 84 | 1010.4 |
| 20260507033331 | 49 | 302 | 0.0 | 0.0 | 0.00 | 0.00 | 0.00 | 84 | 1010.3 |
| 20260507032819 | 49 | 302 | 0.0 | 0.0 | 0.00 | 0.00 | 0.00 | 83 | 1010.3 |
| 20260507031330 | 49 | 302 | 0.0 | 0.0 | 0.00 | 0.00 | 0.00 | 83 | 1010.2 |
| 20260507030334 | 49 | 302 | 0.0 | 0.0 | 0.00 | 0.00 | 0.00 | 83 | 1010.1 |
| 20260507025332 | 49 | 302 | 0.0 | 0.0 | 0.00 | 0.00 | 0.00 | 83 | 1010.1 |
| 20260507024330 | 49 | 302 | 0.0 | 0.0 | 0.00 | 0.00 | 0.00 | 83 | 1010.1 |
| 20260507023813 | 49 | 302 | 0.0 | 0.0 | 0.00 | 0.00 | 0.00 | 83 | 1010.0 |
| 20260507022325 | 49 | 302 | 0.0 | 1.7 | 0.00 | 0.00 | 0.00 | 83 | 1010.0 |
| 20260507021808 | 49 | 302 | 0.9 | 3.5 | 0.00 | 0.00 | 0.00 | 83 | 1009.8 |
| 20260507020324 | 49 | 303 | 0.9 | 4.3 | 0.00 | 0.00 | 0.00 | 83 | 1009.7 |
| 20260507015322 | 49 | 303 | 0.0 | 4.3 | 0.00 | 0.00 | 0.00 | 83 | 1009.5 |
| 20260507014322 | 49 | 303 | 0.9 | 6.1 | 0.00 | 0.00 | 0.00 | 83 | 1009.5 |
| 20260507013320 | 49 | 303 | 1.7 | 5.2 | 0.00 | 0.00 | 0.00 | 83 | 1009.6 |
| 20260507012317 | 49 | 303 | 0.0 | 0.0 | 0.00 | 0.00 | 0.00 | 83 | 1009.6 |
| 20260507011318 | 49 | 303 | 0.0 | 0.0 | 0.00 | 0.00 | 0.00 | 83 | 1009.5 |
| 20260507010316 | 49 | 303 | 0.0 | 4.3 | 0.00 | 0.00 | 0.00 | 83 | 1009.4 |
| 20260507005316 | 49 | 303 | 0.0 | 4.3 | 0.00 | 0.00 | 0.00 | 84 | 1009.3 |
| 20260507004804 | 49 | 303 | 0.0 | 0.0 | 0.00 | 0.00 | 0.00 | 84 | 1009.2 |
| 20260507003311 | 49 | 303 | 0.9 | 4.3 | 0.00 | 0.00 | 0.00 | 84 | 1009.2 |
| 20260507002312 | 49 | 303 | 0.0 | 0.0 | 0.00 | 0.00 | 0.00 | 84 | 1009.2 |
| 20260507001310 | 49 | 303 | 0.0 | 0.0 | 0.00 | 0.00 | 0.00 | 84 | 1009.3 |
| 20260507000308 | 49 | 303 | 0.0 | 0.0 | 0.00 | 0.00 | 0.00 | 84 | 1009.2 |
| 20260506235309 | 49 | 303 | 0.0 | 2.6 | 0.00 | 0.00 | 0.00 | 84 | 1009.2 |
| 20260506234742 | 49 | 303 | 0.0 | 4.3 | 0.00 | 0.00 | 0.00 | 84 | 1009.2 |
| 20260506233304 | 49 | 303 | 0.0 | 3.5 | 0.00 | 0.00 | 0.00 | 84 | 1009.1 |
| 20260506232306 | 49 | 303 | 0.0 | 2.6 | 0.00 | 0.00 | 0.00 | 85 | 1009.1 |
| 20260506231302 | 49 | 303 | 0.0 | 0.0 | 0.00 | 0.00 | 0.00 | 84 | 1009.0 |
| 20260506230305 | 49 | 303 | 0.0 | 4.3 | 0.00 | 0.00 | 0.00 | 84 | 1009.1 |
| 20260506225746 | 49 | 303 | 0.9 | 2.6 | 0.00 | 0.00 | 0.00 | 84 | 1009.0 |
| 20260506224302 | 49 | 303 | 0.0 | 5.2 | 0.00 | 0.00 | 0.00 | 83 | 1009.0 |
| 20260506224210 | 49 | 314 | 0.9 | 5.2 | 0.00 | 0.00 | 0.00 | 84 | 1009.0 |
| 20260506222305 | 49 | 314 | 0.0 | 6.1 | 0.00 | 0.00 | 0.00 | 84 | 1008.9 |
| 20260506221302 | 49 | 316 | 2.6 | 9.6 | 0.00 | 0.00 | 0.00 | 84 | 1008.7 |
| 20260506220302 | 49 | 312 | 1.7 | 4.3 | 0.00 | 0.00 | 0.00 | 84 | 1008.7 |
| 20260506215746 | 49 | 312 | 0.0 | 0.0 | 0.00 | 0.00 | 0.00 | 84 | 1008.6 |
| 20260506214302 | 49 | 312 | 0.0 | 0.0 | 0.00 | 0.00 | 0.00 | 84 | 1008.5 |
| 20260506213303 | 49 | 312 | 0.0 | 0.9 | 0.00 | 0.00 | 0.00 | 84 | 1008.6 |
| 20260506212302 | 50 | 312 | 0.0 | 0.0 | 0.00 | 0.00 | 0.00 | 84 | 1008.5 |
| 20260506211302 | 50 | 312 | 0.0 | 0.0 | 0.00 | 0.00 | 0.00 | 84 | 1008.4 |
| 20260506210302 | 50 | 312 | 0.0 | 0.0 | 0.00 | 0.00 | 0.00 | 84 | 1008.4 |
| 20260506205740 | 50 | 312 | 0.0 | 5.2 | 0.00 | 0.00 | 0.00 | 84 | 1008.3 |
| 20260506204302 | 50 | 313 | 0.0 | 6.1 | 0.00 | 0.00 | 0.00 | 84 | 1008.3 |
| 20260506203301 | 50 | 320 | 0.0 | 4.3 | 0.00 | 0.00 | 0.00 | 85 | 1008.2 |
| 20260506202305 | 50 | 324 | 1.7 | 6.1 | 0.00 | 0.00 | 0.00 | 85 | 1008.1 |
| 20260506201303 | 50 | 326 | 0.0 | 5.2 | 0.00 | 0.00 | 0.00 | 85 | 1008.1 |
| 20260506200302 | 51 | 327 | 0.9 | 5.2 | 0.00 | 0.00 | 0.00 | 85 | 1007.9 |
| 20260506195305 | 51 | 303 | 0.0 | 0.0 | 0.00 | 0.00 | 0.00 | 85 | 1007.9 |
| 20260506194302 | 52 | 303 | 0.0 | 0.0 | 0.00 | 0.00 | 0.00 | 84 | 1007.6 |
| 20260506193738 | 52 | 303 | 0.0 | 0.0 | 0.00 | 0.00 | 0.00 | 84 | 1007.6 |
| 20260506192305 | 52 | 303 | 0.0 | 4.3 | 0.00 | 0.00 | 0.00 | 83 | 1007.4 |
| 20260506191301 | 52 | 302 | 0.0 | 0.0 | 0.00 | 0.00 | 0.00 | 83 | 1007.2 |
| 20260506190302 | 52 | 302 | 0.0 | 0.0 | 0.00 | 0.00 | 0.00 | 83 | 1007.0 |
| 20260506185306 | 52 | 302 | 0.0 | 0.0 | 0.00 | 0.00 | 0.00 | 83 | 1006.9 |
| 20260506184304 | 52 | 302 | 0.0 | 0.0 | 0.00 | 0.00 | 0.00 | 83 | 1006.7 |
| 20260506183303 | 52 | 302 | 0.0 | 0.0 | 0.00 | 0.00 | 0.00 | 83 | 1006.7 |
| 20260506182306 | 53 | 302 | 0.0 | 3.5 | 0.00 | 0.00 | 0.00 | 84 | 1006.5 |
| 20260506181302 | 53 | 302 | 0.0 | 0.0 | 0.00 | 0.00 | 0.00 | 84 | 1006.3 |
| 20260506180301 | 53 | 302 | 0.0 | 0.0 | 0.00 | 0.00 | 0.00 | 84 | 1006.2 |
| 20260506175306 | 53 | 302 | 0.0 | 5.2 | 0.00 | 0.00 | 0.00 | 84 | 1006.2 |
| 20260506174304 | 53 | 298 | 1.7 | 6.1 | 0.00 | 0.00 | 0.00 | 84 | 1006.2 |
| 20260506173303 | 53 | 298 | 0.0 | 4.3 | 0.00 | 0.00 | 0.00 | 84 | 1006.1 |
| 20260506172750 | 53 | 298 | 1.7 | 5.2 | 0.00 | 0.00 | 0.00 | 84 | 1006.2 |
| 20260506171303 | 53 | 298 | 0.0 | 5.2 | 0.00 | 0.00 | 0.00 | 84 | 1006.0 |
| 20260506170740 | 53 | 298 | 0.0 | 5.2 | 0.00 | 0.00 | 0.00 | 85 | 1005.9 |
| 20260506165755 | 53 | 298 | 0.9 | 4.3 | 0.00 | 0.00 | 0.00 | 85 | 1005.9 |
| 20260506164301 | 53 | 298 | 0.0 | 2.6 | 0.00 | 0.00 | 0.00 | 85 | 1005.9 |
| 20260506163259 | 54 | 299 | 0.0 | 6.1 | 0.00 | 0.00 | 0.00 | 85 | 1005.9 |
| 20260506162254 | 54 | 307 | 2.6 | 7.8 | 0.00 | 0.00 | 0.00 | 85 | 1005.8 |
| 20260506161254 | 54 | 275 | 3.5 | 8.7 | 0.00 | 0.00 | 0.00 | 84 | 1005.7 |
| 20260506160729 | 54 | 314 | 0.0 | 4.3 | 0.00 | 0.00 | 0.00 | 86 | 1005.7 |
| 20260506155250 | 54 | 314 | 1.7 | 9.6 | 0.00 | 0.00 | 0.00 | 86 | 1005.6 |
| 20260506154250 | 55 | 303 | 0.0 | 5.2 | 0.00 | 0.00 | 0.00 | 89 | 1005.6 |
| 20260506153248 | 55 | 317 | 0.0 | 4.3 | 0.01 | 0.00 | 0.00 | 88 | 1005.5 |
| 20260506152732 | 55 | 320 | 0.0 | 5.2 | 0.01 | 0.00 | 0.00 | 87 | 1005.5 |
| 20260506151243 | 56 | 321 | 0.0 | 7.8 | 0.02 | 0.00 | 0.00 | 85 | 1005.4 |
| 20260506150244 | 56 | 305 | 3.5 | 6.1 | 0.03 | 0.00 | 0.00 | 85 | 1005.2 |
| 20260506145242 | 56 | 303 | 0.0 | 5.2 | 0.03 | 0.00 | 0.00 | 87 | 1005.0 |
| 20260506144242 | 56 | 303 | 0.9 | 6.1 | 0.03 | 0.00 | 0.00 | 86 | 1004.9 |
| 20260506143240 | 57 | 310 | 0.9 | 10.4 | 0.02 | 0.00 | 0.00 | 88 | 1004.7 |
| 20260506142237 | 56 | 288 | 4.3 | 12.2 | 0.02 | 0.00 | 0.00 | 88 | 1004.6 |
| 20260506141239 | 57 | 292 | 1.7 | 10.4 | 0.02 | 0.00 | 0.00 | 87 | 1004.4 |
| 20260506141155 | 58 | 292 | 1.7 | 7.8 | 0.00 | 0.00 | 0.00 | 82 | 1004.3 |
| 20260506135234 | 58 | 233 | 4.3 | 7.8 | 0.00 | 0.00 | 0.00 | 79 | 1004.3 |
| 20260506134720 | 58 | 193 | 3.5 | 7.8 | 0.01 | 0.00 | 0.00 | 80 | 1004.4 |
| 20260506133232 | 58 | 269 | 0.0 | 4.3 | 0.01 | 0.00 | 0.00 | 84 | 1004.5 |
| 20260506132237 | 57 | 269 | 0.9 | 8.7 | 0.02 | 0.00 | 0.00 | 83 | 1004.6 |
| 20260506131703 | 57 | 203 | 4.3 | 8.7 | 0.02 | 0.00 | 0.00 | 82 | 1004.6 |
| 20260506130231 | 57 | 258 | 0.0 | 8.7 | 0.02 | 0.00 | 0.00 | 83 | 1004.5 |
| 20260506125232 | 57 | 182 | 0.0 | 11.3 | 0.02 | 0.00 | 0.00 | 83 | 1004.4 |
| 20260506124711 | 58 | 152 | 2.6 | 8.7 | 0.01 | 0.00 | 0.00 | 81 | 1004.4 |
| 20260506123231 | 58 | 200 | 0.0 | 5.2 | 0.01 | 0.00 | 0.00 | 79 | 1004.3 |
| 20260506122231 | 59 | 154 | 0.0 | 8.7 | 0.00 | 0.00 | 0.00 | 76 | 1004.2 |
| 20260506121712 | 59 | 234 | 1.7 | 8.7 | 0.00 | 0.00 | 0.00 | 75 | 1004.2 |
| 20260506120232 | 59 | 197 | 1.7 | 6.1 | 0.00 | 0.00 | 0.00 | 77 | 1004.2 |
| 20260506115231 | 58 | 219 | 3.5 | 7.8 | 0.00 | 0.00 | 0.00 | 79 | 1004.3 |
| 20260506114231 | 59 | 257 | 2.6 | 7.8 | 0.00 | 0.00 | 0.00 | 79 | 1004.3 |
| 20260506113231 | 58 | 200 | 5.2 | 10.4 | 0.00 | 0.00 | 0.00 | 78 | 1004.3 |
| 20260506112231 | 58 | 243 | 2.6 | 9.6 | 0.00 | 0.00 | 0.00 | 79 | 1004.4 |
| 20260506111231 | 58 | 172 | 3.5 | 8.7 | 0.00 | 0.00 | 0.00 | 80 | 1004.3 |
| 20260506110231 | 57 | 141 | 0.0 | 10.4 | 0.00 | 0.00 | 0.00 | 84 | 1004.4 |
| 20260506105231 | 57 | 233 | 5.2 | 10.4 | 0.00 | 0.00 | 0.00 | 83 | 1004.6 |
| 20260506104231 | 58 | 158 | 0.0 | 6.1 | 0.00 | 0.00 | 0.00 | 79 | 1004.6 |
| 20260506103231 | 58 | 235 | 1.7 | 6.1 | 0.00 | 0.00 | 0.00 | 78 | 1004.5 |
| 20260506102232 | 59 | 223 | 0.0 | 7.8 | 0.00 | 0.00 | 0.00 | 76 | 1004.5 |
| 20260506101231 | 59 | 276 | 3.5 | 8.7 | 0.00 | 0.00 | 0.00 | 75 | 1004.5 |
| 20260506100231 | 58 | 195 | 3.5 | 7.8 | 0.00 | 0.00 | 0.00 | 79 | 1004.6 |
| 20260506095230 | 57 | 248 | 1.7 | 7.8 | 0.00 | 0.00 | 0.00 | 80 | 1004.5 |
| 20260506094722 | 57 | 257 | 1.7 | 6.1 | 0.00 | 0.00 | 0.00 | 80 | 1004.5 |